Regional Weather Roundup
Issued by NWS

Home | Current Version | Previous Version | Text Only | Print | Product List | Glossary Off
Versions: 1 2 3 4 5 6 7 8 9 10 11 12 13 14 15 16 17 18 19 20 21 22 23 24 25 26 27 28 29 30 31 32 33 34 35 36 37 38 39 40 41 42 43 44 45 46 47 48 49 50

000
ASUS43 KOAX 240702
RWRNE

WEATHER ROUNDUP FOR NEBRASKA
NATIONAL WEATHER SERVICE OMAHA NE
200 AM CDT SUN JUL 24 2016

NOTES: SATELLITE DATA IS BEING USED TO AUGMENT CLOUD COVER ABOVE
       12000 FEET.
       "FAIR" INDICATES FEW OR NO CLOUDS BELOW 12,000 FEET WITH NO
       SIGNIFICANT WEATHER AND/OR OBSTRUCTIONS TO VISIBILITY.

  * THESE STATIONS DO NOT REPORT WEATHER SUCH AS RAIN...SNOW OR FOG.

NEZ001>004-019>022-054>056-240800-
NEBRASKA PANHANDLE

CITY           SKY/WX    TMP DP  RH WIND       PRES   REMARKS
SCOTTSBLUFF    CLEAR     68  56  65 NE5       30.07S
ALLIANCE       PTCLDY    64  56  75 S5        30.09R
CHADRON        CLEAR     60  52  74 W3        30.06R
KIMBALL        CLOUDY    68  55  64 S10       30.13S
SIDNEY         CLOUDY    71  54  54 SE9       30.10F
$$

NEZ057>060-069>072-079>082-240800-
SOUTHWEST NEBRASKA

CITY           SKY/WX    TMP DP  RH WIND       PRES   REMARKS
NORTH PLATTE   PTCLDY    72  59  63 E7        30.00R
IMPERIAL       LGT RAIN  73  62  68 E9        30.03S
LEXINGTON      PTCLDY    74  63  69 N9        29.96S
MCCOOK         CLOUDY    75  66  73 N10       29.96R
OGALLALA       CLOUDY    77  58  50 E9        30.06F
$$

NEZ005>010-023>029-035>040-094-240800-
NORTH CENTRAL NEBRASKA

CITY           SKY/WX    TMP DP  RH WIND       PRES   REMARKS
VALENTINE      MOCLDY    63  57  81 SW3       30.02R
AINSWORTH      PTCLDY    66  60  82 CALM      30.01R
BROKEN BOW     CLEAR     73  60  63 N14       29.97S
O`NEILL        PTCLDY    69  65  86 NW6       29.98R
ORD            PTCLDY    75  62  64 N13       29.94R
THEDFORD       CLOUDY    69  57  66 NE5       30.03S
$$

NEZ041-046>049-061>064-073>077-083>087-240800-
SOUTH CENTRAL NEBRASKA

CITY           SKY/WX    TMP DP  RH WIND       PRES   REMARKS
GRAND ISLAND   CLEAR     77  71  82 N8        29.91R
AURORA         CLEAR     77  76  96 N10       29.89R
HASTINGS       CLEAR     77  74  90 N9        29.91R
HEBRON         CLOUDY    73  69  88 CALM      29.87R
HOLDREGE       CLEAR     73  68  83 N7        29.93S
KEARNEY *      PTCLDY    75  66  73 N10       29.94R
YORK           CLEAR     73  72  94 CALM      29.88R
$$

NEZ011>018-030>034-042>045-240800-
NORTHEAST NEBRASKA

CITY           SKY/WX    TMP DP  RH WIND       PRES   REMARKS
NORFOLK        CLEAR     79  68  69 N17       29.88R
ALBION         CLEAR     76  70  80 N10       29.92R
BLAIR          CLEAR     80  74  83 SW3       29.84S
FREMONT        CLEAR     82  71  68 CALM      29.84S
TEKAMAH        CLEAR     77  74  90 S5        29.82R
WAYNE          CLEAR     78  72  81 N10G18    29.88R
$$

NEZ050>053-065>068-078-088>093-240800-
SOUTHEAST NEBRASKA

CITY           SKY/WX    TMP DP  RH WIND       PRES   REMARKS
LINCOLN        CLEAR     78  72  81 W3        29.85R
OMAHA EPPLEY   PTCLDY    82  74  76 SE3       29.83R
BEATRICE       CLOUDY    78  70  77 W3        29.85S
FALLS CITY     CLOUDY    81  72  74 S8        29.84S
NEBRASKA CITY  CLOUDY    78  72  80 S7        29.84S
PLATTSMOUTH    CLOUDY    80  73  77 CALM      29.84S
$$

NEZ044-045-051>053-067-240800-
OMAHA AREA

CITY           SKY/WX    TMP DP  RH WIND       PRES   REMARKS
OMAHA EPPLEY   PTCLDY    82  74  76 SE3       29.83R
BLAIR          CLEAR     80  74  83 SW3       29.84S
FREMONT        CLEAR     82  71  68 CALM      29.84S
MILLARD        CLEAR     80  75  86 CALM      29.83R
OFFUTT AFB     CLOUDY    77  75  93 S3        29.83R
PLATTSMOUTH    CLOUDY    80  73  77 CALM      29.84S
WAHOO          FAIR      75  72  89 SE5       29.84R
$$



USA.gov is the U.S. government's official web portal to all federal, state and local government web resources and services.